GLO255 SBRJ-SBSP

Flight info

Callsign GLO255
Flight time N/A
Altitude 34000
Route EVKOX2B NAXOP UZ45 IBDAL IBDAL2A
Aircraft B737/M-SDE2E3FGHIRWXY/LB1

Departure

Time 2026-05-08 01:17
Airport Santos Dumont Airport (SBRJ)

Arrival

Time N/A
Airport Congonhas–Deputado Freitas Nobre Airport (SBSP)
Time Latitude Longitude Altitude Speed Heading
2026-05-08 01:06 -22.91169 -43.16585 21 ft 0 kts 267°
2026-05-08 01:11 -22.91169 -43.16581 23 ft 3 kts 267°
2026-05-08 01:11 -22.91167 -43.16552 21 ft 4 kts 269°
2026-05-08 01:11 -22.91172 -43.16526 22 ft 4 kts 313°
2026-05-08 01:12 -22.91192 -43.16514 21 ft 3 kts 355°
2026-05-08 01:12 -22.91199 -43.16514 21 ft 0 kts 356°
2026-05-08 01:14 -22.91181 -43.16515 21 ft 8 kts 355°
2026-05-08 01:14 -22.91093 -43.16528 22 ft 18 kts 348°
2026-05-08 01:14 -22.90951 -43.16543 21 ft 22 kts 356°
2026-05-08 01:15 -22.90800 -43.16543 21 ft 21 kts
2026-05-08 01:15 -22.90658 -43.16549 21 ft 21 kts 356°
2026-05-08 01:15 -22.90524 -43.16554 21 ft 17 kts 18°
2026-05-08 01:15 -22.90495 -43.16449 22 ft 15 kts 86°
2026-05-08 01:16 -22.90479 -43.16346 23 ft 11 kts 61°
2026-05-08 01:16 -22.90492 -43.16319 23 ft 0 kts 177°
2026-05-08 01:16 -22.90636 -43.16310 27 ft 65 kts 176°
2026-05-08 01:17 -22.91420 -43.16260 23 ft 156 kts 177°
2026-05-08 01:17 -22.92608 -43.16193 769 ft 178 kts 173°
2026-05-08 01:17 -22.93734 -43.15570 1800 ft 193 kts 132°
2026-05-08 01:17 -22.94613 -43.14414 2728 ft 208 kts 129°
2026-05-08 01:18 -22.95570 -43.13199 3633 ft 213 kts 132°
2026-05-08 01:18 -22.96660 -43.12060 4529 ft 223 kts 134°
2026-05-08 01:18 -22.97944 -43.10976 5189 ft 254 kts 152°
2026-05-08 01:18 -22.99817 -43.10696 5747 ft 290 kts 186°
2026-05-08 01:19 -23.01726 -43.11497 6755 ft 299 kts 217°
2026-05-08 01:19 -23.03174 -43.13080 7982 ft 295 kts 238°
2026-05-08 01:19 -23.04230 -43.14991 9124 ft 296 kts 245°
2026-05-08 01:19 -23.05152 -43.17001 9988 ft 297 kts 248°
2026-05-08 01:20 -23.05989 -43.19136 9835 ft 315 kts 252°
2026-05-08 01:20 -23.06786 -43.21359 9986 ft 315 kts 249°
2026-05-08 01:20 -23.07746 -43.23499 9972 ft 315 kts 245°
2026-05-08 01:20 -23.08776 -43.25594 9997 ft 314 kts 244°
2026-05-08 01:21 -23.09813 -43.27683 9984 ft 315 kts 244°
2026-05-08 01:21 -23.10738 -43.29826 9960 ft 310 kts 258°
2026-05-08 01:21 -23.10954 -43.32093 9994 ft 306 kts 270°
2026-05-08 01:21 -23.11116 -43.34384 9943 ft 300 kts 268°
2026-05-08 01:22 -23.11321 -43.36625 9745 ft 296 kts 267°
2026-05-08 01:22 -23.11538 -43.38837 9350 ft 294 kts 266°
2026-05-08 01:22 -23.11760 -43.41044 8941 ft 293 kts 266°
2026-05-08 01:22 -23.11981 -43.43235 8563 ft 290 kts 266°
2026-05-08 01:23 -23.12200 -43.45404 8136 ft 288 kts 266°
2026-05-08 01:23 -23.12411 -43.47573 7677 ft 289 kts 266°
2026-05-08 01:23 -23.12590 -43.49732 7310 ft 283 kts 272°
2026-05-08 01:23 -23.12098 -43.51743 6862 ft 274 kts 305°
2026-05-08 01:24 -23.10724 -43.53069 6476 ft 263 kts 337°
2026-05-08 01:24 -23.09554 -43.53372 6184 ft 263 kts 359°
2026-05-08 01:24 -23.07811 -43.52751 6061 ft 273 kts 35°
2026-05-08 01:24 -23.06311 -43.51482 6063 ft 273 kts 23°
2026-05-08 01:25 -23.03835 -43.51072 5986 ft 270 kts 358°
2026-05-08 01:25 -23.02597 -43.51077 6003 ft 269 kts 359°
2026-05-08 01:25 -23.00714 -43.51047 5980 ft 271 kts
2026-05-08 01:25 -22.98826 -43.51022 5994 ft 272 kts
2026-05-08 01:26 -22.96936 -43.50918 5937 ft 273 kts 11°
2026-05-08 01:26 -22.95217 -43.50097 5963 ft 275 kts 32°
2026-05-08 01:26 -22.93868 -43.48632 5967 ft 283 kts 53°
2026-05-08 01:26 -22.92978 -43.46700 5989 ft 287 kts 61°
2026-05-08 01:27 -22.92178 -43.44769 5997 ft 282 kts 62°
2026-05-08 01:27 -22.91371 -43.42822 5974 ft 283 kts 62°
2026-05-08 01:27 -22.90571 -43.40876 5975 ft 282 kts 61°
2026-05-08 01:27 -22.89762 -43.38943 5991 ft 282 kts 62°
2026-05-08 01:28 -22.88936 -43.36992 5899 ft 287 kts 61°
2026-05-08 01:28 -22.88100 -43.35071 5817 ft 274 kts 61°
2026-05-08 01:28 -22.87428 -43.33165 5618 ft 267 kts 67°
2026-05-08 01:28 -22.86848 -43.31281 5317 ft 262 kts 68°
2026-05-08 01:29 -22.86258 -43.29391 4769 ft 265 kts 66°
2026-05-08 01:29 -22.85641 -43.27464 3967 ft 275 kts 67°
2026-05-08 01:29 -22.85007 -43.25507 3275 ft 271 kts 71°
2026-05-08 01:29 -22.84795 -43.23522 2291 ft 266 kts 91°
2026-05-08 01:30 -22.85093 -43.21581 1634 ft 252 kts 101°
2026-05-08 01:30 -22.85647 -43.19872 1346 ft 227 kts 115°
2026-05-08 01:30 -22.86404 -43.18455 1001 ft 207 kts 121°
2026-05-08 01:30 -22.87127 -43.17201 696 ft 187 kts 121°
2026-05-08 01:31 -22.88017 -43.16351 481 ft 167 kts 170°
2026-05-08 01:31 -22.89129 -43.16381 255 ft 153 kts 178°
2026-05-08 01:31 -22.90098 -43.16340 138 ft 129 kts 176°
2026-05-08 01:31 -22.90877 -43.16291 25 ft 69 kts 177°
2026-05-08 01:32 -22.91205 -43.16273 21 ft 27 kts 176°
2026-05-08 01:32 -22.91333 -43.16296 19 ft 19 kts 240°
2026-05-08 01:32 -22.91348 -43.16416 20 ft 13 kts 266°
2026-05-08 01:32 -22.91349 -43.16483 21 ft 7 kts 274°
2026-05-08 01:33 -22.91350 -43.16536 21 ft 7 kts 267°
2026-05-08 01:33 -22.91351 -43.16569 21 ft 2 kts 269°
2026-05-08 01:33 -22.91351 -43.16574 21 ft 0 kts 269°